Location: ??????????
(48.4699°N, 37.9573°E)
Time: 12:00:24
(UTC+00:00)

COSMOS 2406 - Pass Details

Date: 20 January 2021
Orbit: 841 x 866 km, 71.0° (Epoch: 26 February)

Event Time Altitude Azimuth Distance (km) Brightness Sun altitude
Rises 15:42:20 0° 336° (NNW) 3,459 6.5 -15.3°
Reaches altitude 10° 15:45:17 10° 349° (N) 2,519 5.7 -15.8°
Maximum altitude 15:50:00 25° 44° (NE) 1,686 4.3 -16.5°
Enters shadow 15:50:49 24° 57° (ENE) 1,716 4.3 -16.7°
